This demonstration page uses our WeatherBlox Daily Observations layout. Learn more.

Hourly Observations for January 1, 2016

Temp ( °F °C ) Dew Point ( °F °C ) Humidity (%) Winds ( mph kmh ) Pressure ( in mb ) Visibility ( mi km ) Precip ( " mm )
12:15 am 00:15 Clear 19 -7 14 -10 79 79 WNW 7 11 30.62 1037 10 16.09344 0 0
12:35 am 00:35 Clear 18 -8 12 -11 79 79 WNW 7 11 30.62 1037 10 16.09344 0 0
12:55 am 00:55 Clear 18 -8 12 -11 79 79 WNW 8 13 30.62 1037 10 16.09344 0 0
1:15 am 01:15 Clear 18 -8 12 -11 79 79 WNW 5 7 30.62 1037 10 16.09344 0 0
1:35 am 01:35 Clear 16 -9 12 -11 86 86 W 7 11 30.65 1038 10 16.09344 0 0
1:55 am 01:55 Clear 16 -9 12 -11 86 86 W 7 11 30.65 1038 10 16.09344 0 0
2:15 am 02:15 Clear 16 -9 12 -11 86 86 W 7 11 30.65 1038 10 16.09344 0 0
2:35 am 02:35 Clear 16 -9 12 -11 86 86 W 6 9 30.65 1038 10 16.09344 0 0
2:55 am 02:55 Clear 16 -9 12 -11 86 86 WNW 7 11 30.65 1038 10 16.09344 0 0
3:15 am 03:15 Clear 16 -9 12 -11 86 86 W 7 11 30.65 1038 10 16.09344 0 0
3:35 am 03:35 Clear 18 -8 12 -11 79 79 W 8 13 30.62 1037 10 16.09344 0 0
3:55 am 03:55 Clear 18 -8 12 -11 79 79 W 7 11 30.59 1036 10 16.09344 0 0
4:15 am 04:15 Clear 16 -9 10 -12 79 79 W 7 11 30.62 1037 10 16.09344 0 0
4:35 am 04:35 Clear 16 -9 10 -12 79 79 W 8 13 30.62 1037 10 16.09344 0 0
4:55 am 04:55 Clear 16 -9 10 -12 79 79 WSW 6 9 30.62 1037 10 16.09344 0 0
5:15 am 05:15 Clear 16 -9 10 -12 79 79 W 8 13 30.62 1037 10 16.09344 0 0
5:35 am 05:35 Clear 16 -9 10 -12 79 79 W 8 13 30.62 1037 10 16.09344 0 0
5:55 am 05:55 Clear 16 -9 10 -12 79 79 W 10 17 30.62 1037 10 16.09344 0 0
6:15 am 06:15 Clear 16 -9 10 -12 79 79 W 10 17 30.62 1037 10 16.09344 0 0
6:35 am 06:35 Clear 16 -9 12 -11 86 86 W 12 19 30.62 1037 10 16.09344 0 0
6:55 am 06:55 Clear 16 -9 10 -12 79 79 W 13 20 30.62 1037 10 16.09344 0 0
7:15 am 07:15 Clear 16 -9 10 -12 79 79 W 12 19 30.59 1036 10 16.09344 0 0
7:35 am 07:35 Clear 16 -9 10 -12 79 79 W 13 20 30.59 1036 10 16.09344 0 0
7:55 am 07:55 Clear 16 -9 9 -13 73 73 W 14 22 30.59 1036 10 16.09344 0 0
8:15 am 08:15 Sunny 18 -8 9 -13 68 68 W 13 20 30.56 1035 10 16.09344 0 0
8:35 am 08:35 Sunny 18 -8 9 -13 68 68 W 14 22 30.56 1035 10 16.09344 0 0
8:55 am 08:55 Sunny 18 -8 9 -13 68 68 W 14 22 30.56 1035 10 16.09344 0 0
9:15 am 09:15 Sunny 18 -8 10 -12 73 73 W 16 26 30.56 1035 10 16.09344 0 0
9:35 am 09:35 Sunny 18 -8 10 -12 73 73 W 16 26 30.56 1035 10 16.09344 0 0
9:55 am 09:55 Sunny 21 -6 10 -12 63 63 W 14 22 30.53 1034 10 16.09344 0 0
10:15 am 10:15 Sunny 23 -5 12 -11 63 63 W 15 24 30.53 1034 10 16.09344 0 0
10:35 am 10:35 Sunny 25 -4 12 -11 59 59 W 15 24 30.53 1034 10 16.09344 0 0
10:55 am 10:55 Sunny 27 -3 12 -11 54 54 W 17 28 30.5 1033 10 16.09344 0 0
11:15 am 11:15 Sunny 28 -2 12 -11 51 51 W 16 26 30.48 1032 10 16.09344 0 0
11:35 am 11:35 Sunny 30 -1 14 -10 51 51 W 17 28 30.48 1032 10 16.09344 0 0
11:55 am 11:55 Sunny 32 0 14 -10 47 47 W 17 28 30.45 1031 10 16.09344 0 0
12:15 pm 12:15 Sunny 32 0 16 -9 51 51 W 18 30 30.42 1030 10 16.09344 0 0
12:35 pm 12:35 Sunny 34 1 16 -9 48 48 W 15 24 30.42 1030 10 16.09344 0 0
12:55 pm 12:55 Sunny 36 2 18 -8 48 48 W 18 30 30.39 1029 10 16.09344 0 0
1:15 pm 13:15 Sunny 37 3 16 -9 41 41 WSW 16 26 30.36 1028 10 16.09344 0 0
1:35 pm 13:35 Sunny 37 3 18 -8 45 45 W 20 31 30.36 1028 10 16.09344 0 0
1:55 pm 13:55 Sunny 39 4 18 -8 42 42 W 18 30 30.36 1028 10 16.09344 0 0
2:15 pm 14:15 Sunny 39 4 16 -9 39 39 W 16 26 30.36 1028 10 16.09344 0 0
2:35 pm 14:35 Sunny 39 4 16 -9 39 39 W 20 31 30.33 1027 10 16.09344 0 0
2:55 pm 14:55 Sunny 41 5 14 -10 33 33 W 18 30 30.3 1026 10 16.09344 0 0
3:15 pm 15:15 Sunny 41 5 16 -9 36 36 W 14 22 30.3 1026 10 16.09344 0 0
3:35 pm 15:35 Sunny 41 5 16 -9 36 36 W 15 24 30.3 1026 10 16.09344 0 0
3:55 pm 15:55 Sunny 41 5 16 -9 36 36 W 10 17 30.3 1026 10 16.09344 0 0
4:15 pm 16:15 Sunny 41 5 14 -10 33 33 W 10 17 30.3 1026 10 16.09344 0 0
4:35 pm 16:35 Sunny 39 4 16 -9 39 39 W 10 17 30.33 1027 10 16.09344 0 0
4:55 pm 16:55 Sunny 37 3 18 -8 45 45 WSW 9 15 30.33 1027 10 16.09344 0 0
5:15 pm 17:15 Sunny 37 3 16 -9 41 41 WSW 9 15 30.33 1027 10 16.09344 0 0
5:35 pm 17:35 Clear 36 2 16 -9 44 44 W 9 15 30.33 1027 10 16.09344 0 0
5:55 pm 17:55 Clear 27 -3 18 -8 69 69 WNW 6 9 30.5 1033 10 16.09344 0 0
6:15 pm 18:15 Clear 32 0 18 -8 55 55 W 10 17 30.36 1028 10 16.09344 0 0
6:35 pm 18:35 Clear 30 -1 16 -9 55 55 W 8 13 30.36 1028 10 16.09344 0 0
6:55 pm 18:55 Clear 32 0 16 -9 51 51 WNW 8 13 30.36 1028 10 16.09344 0 0
7:15 pm 19:15 Clear 28 -2 16 -9 59 59 W 6 9 30.42 1030 10 16.09344 0 0
7:35 pm 19:35 Clear 27 -3 16 -9 64 64 W 7 11 30.42 1030 10 16.09344 0 0
7:55 pm 19:55 Clear 27 -3 16 -9 64 64 W 7 11 30.42 1030 10 16.09344 0 0
8:15 pm 20:15 Clear 27 -3 14 -10 59 59 W 8 13 30.42 1030 10 16.09344 0 0
8:35 pm 20:35 Clear 27 -3 14 -10 59 59 W 7 11 30.42 1030 10 16.09344 0 0
8:55 pm 20:55 Clear 27 -3 14 -10 59 59 W 9 15 30.42 1030 10 16.09344 0 0
9:15 pm 21:15 Clear 27 -3 14 -10 59 59 W 9 15 30.42 1030 10 16.09344 0 0
9:35 pm 21:35 Clear 27 -3 14 -10 59 59 W 8 13 30.42 1030 10 16.09344 0 0
9:55 pm 21:55 Clear 27 -3 14 -10 59 59 W 9 15 30.42 1030 10 16.09344 0 0
10:15 pm 22:15 Clear 25 -4 14 -10 63 63 W 8 13 30.45 1031 10 16.09344 0 0
10:35 pm 22:35 Clear 25 -4 14 -10 63 63 W 8 13 30.45 1031 10 16.09344 0 0
10:55 pm 22:55 Clear 25 -4 14 -10 63 63 WNW 7 11 30.45 1031 10 16.09344 0 0
11:15 pm 23:15 Clear 25 -4 14 -10 63 63 WNW 6 9 30.45 1031 10 16.09344 0 0
11:35 pm 23:35 Clear 23 -5 14 -10 68 68 W 8 13 30.45 1031 10 16.09344 0 0
11:55 pm 23:55 Clear 21 -6 14 -10 74 74 W 7 11 30.45 1031 10 16.09344 0 0

Powered by AerisWeather